• In Czech Republic
  • List of Countries
  • For 7 days
  • Water Temperature
  • Satellite Maps
  • Weather Map
  • Weather Widgets
  • user-avatar
    Login

    Hourly Weather Pyshne

    Today, 17 August, Friday

    Time Temperature Precipitation Wind Pressure Humidity
    00:00 +27°C° 0 mm 3 mps 749 mmHg 41%
    01:00 +26°C° 0 mm 3 mps 749 mmHg 42%
    02:00 +25°C° 0 mm 3 mps 749 mmHg 45%
    03:00 +25°C° 0 mm 3 mps 749 mmHg 46%
    04:00 +24°C° 0 mm 3 mps 749 mmHg 48%
    05:00 +24°C° 0 mm 3 mps 749 mmHg 49%
    06:00 +26°C° 0 mm 3 mps 749 mmHg 46%
    07:00 +27°C° 0 mm 3 mps 749 mmHg 43%
    08:00 +29°C° 0 mm 4 mps 750 mmHg 41%
    09:00 +32°C° 0 mm 4 mps 750 mmHg 36%
    10:00 +34°C° 0 mm 4 mps 750 mmHg 30%
    11:00 +36°C° 0 mm 4 mps 750 mmHg 24%
    12:00 +36°C° 0 mm 4 mps 749 mmHg 23%
    13:00 +36°C° 0 mm 4 mps 749 mmHg 22%
    14:00 +37°C° 0 mm 4 mps 749 mmHg 20%
    15:00 +36°C° 0 mm 4 mps 749 mmHg 22%
    16:00 +36°C° 0 mm 4 mps 749 mmHg 23%
    17:00 +35°C° 0 mm 4 mps 749 mmHg 25%
    18:00 +33°C° 0 mm 4 mps 749 mmHg 29%
    19:00 +32°C° 0 mm 4 mps 749 mmHg 32%
    20:00 +29°C° 0 mm 4 mps 749 mmHg 36%
    21:00 +28°C° 0 mm 4 mps 749 mmHg 38%
    22:00 +27°C° 0 mm 4 mps 749 mmHg 41%
    23:00 +27°C° 0 mm 4 mps 749 mmHg 43%

    Tomorrow, 18 August, Saturday

    Time Temperature Precipitation Wind Pressure Humidity
    00:00 +26°C° 0 mm 4 mps 750 mmHg 45%
    01:00 +25°C° 0 mm 3 mps 750 mmHg 48%
    02:00 +24°C° 0 mm 3 mps 750 mmHg 51%
    03:00 +24°C° 0 mm 3 mps 750 mmHg 53%
    04:00 +22°C° 0 mm 3 mps 750 mmHg 56%
    05:00 +22°C° 0 mm 3 mps 750 mmHg 58%
    06:00 +24°C° 0 mm 3 mps 750 mmHg 56%
    07:00 +26°C° 0 mm 4 mps 750 mmHg 54%
    08:00 +27°C° 0 mm 4 mps 751 mmHg 52%
    09:00 +29°C° 0 mm 4 mps 751 mmHg 47%
    10:00 +32°C° 0 mm 4 mps 751 mmHg 41%
    11:00 +33°C° 0 mm 5 mps 751 mmHg 35%
    12:00 +34°C° 0 mm 5 mps 751 mmHg 35%
    13:00 +34°C° 0 mm 5 mps 750 mmHg 34%
    14:00 +34°C° 0 mm 5 mps 750 mmHg 33%
    15:00 +34°C° 0 mm 5 mps 750 mmHg 34%
    16:00 +33°C° 0 mm 5 mps 750 mmHg 35%
    17:00 +33°C° 0 mm 5 mps 750 mmHg 36%
    18:00 +30°C° 0 mm 4 mps 750 mmHg 40%
    19:00 +28°C° 0 mm 4 mps 751 mmHg 44%
    20:00 +26°C° 0 mm 4 mps 751 mmHg 47%
    21:00 +26°C° 0 mm 4 mps 751 mmHg 49%
    22:00 +25°C° 0 mm 4 mps 751 mmHg 50%
    23:00 +23°C° 0 mm 4 mps 751 mmHg 51%

    Day after tomorrow, 19 August, Sunday

    Time Temperature Precipitation Wind Pressure Humidity
    00:00 +22°C° 0 mm 3 mps 751 mmHg 52%
    01:00 +21°C° 0 mm 3 mps 752 mmHg 53%
    02:00 +20°C° 0 mm 3 mps 752 mmHg 54%
    03:00 +20°C° 0 mm 3 mps 752 mmHg 55%
    04:00 +19°C° 0 mm 3 mps 752 mmHg 55%
    05:00 +19°C° 0 mm 3 mps 752 mmHg 56%
    06:00 +20°C° 0 mm 3 mps 752 mmHg 52%
    07:00 +22°C° 0 mm 4 mps 752 mmHg 48%
    08:00 +25°C° 0 mm 4 mps 752 mmHg 44%
    09:00 +26°C° 0 mm 4 mps 752 mmHg 39%
    10:00 +28°C° 0 mm 4 mps 752 mmHg 34%
    11:00 +29°C° 0 mm 4 mps 752 mmHg 29%
    12:00 +30°C° 0 mm 4 mps 752 mmHg 27%
    13:00 +30°C° 0 mm 4 mps 752 mmHg 25%
    14:00 +32°C° 0 mm 4 mps 751 mmHg 22%
    15:00 +32°C° 0 mm 4 mps 751 mmHg 23%
    16:00 +30°C° 0 mm 4 mps 751 mmHg 24%
    17:00 +30°C° 0 mm 4 mps 751 mmHg 24%
    18:00 +28°C° 0 mm 3 mps 751 mmHg 28%
    19:00 +26°C° 0 mm 3 mps 751 mmHg 31%
    20:00 +24°C° 0 mm 3 mps 752 mmHg 34%
    21:00 +22°C° 0 mm 3 mps 752 mmHg 35%
    22:00 +22°C° 0 mm 3 mps 752 mmHg 36%
    23:00 +21°C° 0 mm 3 mps 752 mmHg 37%

    20 August, Monday

    Time Temperature Precipitation Wind Pressure Humidity
    00:00 +20°C° 0 mm 3 mps 752 mmHg 39%
    01:00 +20°C° 0 mm 3 mps 752 mmHg 40%
    02:00 +19°C° 0 mm 3 mps 752 mmHg 42%
    03:00 +19°C° 0 mm 2 mps 752 mmHg 43%
    04:00 +18°C° 0 mm 2 mps 752 mmHg 44%
    05:00 +18°C° 0 mm 2 mps 752 mmHg 46%
    06:00 +20°C° 0 mm 2 mps 752 mmHg 42%
    07:00 +21°C° 0 mm 3 mps 752 mmHg 38%
    08:00 +24°C° 0 mm 3 mps 753 mmHg 35%
    09:00 +26°C° 0 mm 3 mps 753 mmHg 31%
    10:00 +27°C° 0 mm 3 mps 752 mmHg 28%
    11:00 +29°C° 0 mm 3 mps 752 mmHg 25%
    12:00 +29°C° 0 mm 3 mps 752 mmHg 24%
    13:00 +30°C° 0 mm 3 mps 752 mmHg 23%
    14:00 +30°C° 0 mm 3 mps 752 mmHg 21%
    15:00 +30°C° 0 mm 3 mps 751 mmHg 22%
    16:00 +30°C° 0 mm 3 mps 751 mmHg 22%
    17:00 +30°C° 0 mm 3 mps 751 mmHg 22%
    18:00 +28°C° 0 mm 2 mps 751 mmHg 25%
    19:00 +26°C° 0 mm 2 mps 751 mmHg 28%
    20:00 +24°C° 0 mm 2 mps 751 mmHg 31%
    21:00 +23°C° 0 mm 2 mps 752 mmHg 32%
    22:00 +23°C° 0 mm 2 mps 752 mmHg 34%
    23:00 +21°C° 0 mm 2 mps 752 mmHg 35%

    21 August, Tuesday

    Time Temperature Precipitation Wind Pressure Humidity
    00:00 +20°C° 0 mm 2 mps 752 mmHg 36%
    01:00 +20°C° 0 mm 2 mps 751 mmHg 37%
    02:00 +20°C° 0 mm 1 mps 751 mmHg 38%
    03:00 +20°C° 0 mm 1 mps 751 mmHg 39%
    04:00 +19°C° 0 mm 1 mps 752 mmHg 40%
    05:00 +19°C° 0 mm 1 mps 752 mmHg 41%
    06:00 +20°C° 0 mm 2 mps 752 mmHg 38%
    07:00 +23°C° 0 mm 2 mps 752 mmHg 35%
    08:00 +25°C° 0 mm 2 mps 752 mmHg 33%
    09:00 +27°C° 0 mm 2 mps 752 mmHg 29%
    10:00 +28°C° 0 mm 2 mps 752 mmHg 26%
    11:00 +30°C° 0 mm 2 mps 752 mmHg 23%
    12:00 +30°C° 0 mm 2 mps 752 mmHg 22%
    13:00 +31°C° 0 mm 2 mps 751 mmHg 21%
    14:00 +32°C° 0 mm 2 mps 751 mmHg 19%
    15:00 +32°C° 0 mm 1 mps 751 mmHg 20%
    16:00 +32°C° 0 mm 1 mps 751 mmHg 20%
    17:00 +31°C° 0 mm 1 mps 751 mmHg 20%
    18:00 +29°C° 0 mm 1 mps 751 mmHg 23%
    19:00 +27°C° 0 mm 1 mps 751 mmHg 26%
    20:00 +25°C° 0 mm 1 mps 751 mmHg 29%
    21:00 +25°C° 0 mm 1 mps 751 mmHg 30%
    22:00 +24°C° 0 mm 1 mps 751 mmHg 31%
    23:00 +23°C° 0 mm 1 mps 751 mmHg 32%

    22 August, Wednesday

    Time Temperature Precipitation Wind Pressure Humidity
    00:00 +23°C° 0 mm 1 mps 751 mmHg 33%
    01:00 +22°C° 0 mm 1 mps 751 mmHg 34%
    02:00 +22°C° 0 mm 1 mps 751 mmHg 34%
    03:00 +21°C° 0 mm 1 mps 751 mmHg 35%
    04:00 +21°C° 0 mm 1 mps 751 mmHg 35%
    05:00 +21°C° 0 mm 1 mps 751 mmHg 35%
    06:00 +23°C° 0 mm 1 mps 752 mmHg 32%
    07:00 +25°C° 0 mm 1 mps 752 mmHg 30%
    08:00 +28°C° 0 mm 1 mps 752 mmHg 27%
    09:00 +27°C° 0 mm 0 mps 752 mmHg 25%
    10:00 +29°C° 0 mm 0 mps 752 mmHg 22%
    11:00 +31°C° 0 mm 0 mps 752 mmHg 20%
    12:00 +31°C° 0 mm 0 mps 751 mmHg 19%
    13:00 +32°C° 0 mm 0 mps 751 mmHg 19%
    14:00 +32°C° 0 mm 0 mps 751 mmHg 18%
    15:00 +32°C° 0 mm 0 mps 751 mmHg 19%
    16:00 +32°C° 0 mm 0 mps 750 mmHg 19%
    17:00 +31°C° 0 mm 0 mps 750 mmHg 19%
    18:00 +31°C° 0 mm 1 mps 750 mmHg 22%
    19:00 +29°C° 0 mm 1 mps 750 mmHg 25%
    20:00 +27°C° 0 mm 1 mps 751 mmHg 27%
    21:00 +27°C° 0 mm 1 mps 751 mmHg 29%
    22:00 +26°C° 0 mm 1 mps 751 mmHg 30%
    23:00 +25°C° 0 mm 1 mps 750 mmHg 31%
    Show more